TimeEDT,TemperatureF,Dew PointF,Humidity,Sea Level PressureIn,VisibilityMPH,Wind Direction,Wind SpeedMPH,Gust SpeedMPH,PrecipitationIn,Events,Conditions,WindDirDegrees,DateUTC
12:56 AM,61.0,55.0,81,30.10,10.0,Calm,Calm,-,N/A,,Overcast,0,2012-10-27 04:56:00
1:56 AM,60.1,55.0,83,30.08,10.0,Calm,Calm,-,N/A,,Overcast,0,2012-10-27 05:56:00
1:59 AM,60.8,55.4,82,30.08,10.0,Calm,Calm,-,N/A,,Overcast,0,2012-10-27 05:59:00
2:56 AM,60.1,55.0,83,30.06,10.0,Calm,Calm,-,N/A,,Overcast,0,2012-10-27 06:56:00
3:56 AM,60.1,55.0,83,30.04,10.0,NNE,3.5,-,N/A,,Overcast,20,2012-10-27 07:56:00
4:56 AM,60.1,55.0,83,30.02,10.0,ENE,4.6,-,N/A,,Overcast,70,2012-10-27 08:56:00
5:56 AM,59.0,54.0,83,30.02,10.0,NE,3.5,-,N/A,,Overcast,50,2012-10-27 09:56:00
6:56 AM,59.0,54.0,83,30.03,10.0,Calm,Calm,-,N/A,,Overcast,0,2012-10-27 10:56:00
7:56 AM,59.0,53.1,81,30.03,10.0,Calm,Calm,-,N/A,,Mostly Cloudy,0,2012-10-27 11:56:00
8:56 AM,61.0,51.1,70,30.04,10.0,East,4.6,-,N/A,,Mostly Cloudy,80,2012-10-27 12:56:00
9:56 AM,64.0,48.9,58,30.02,10.0,ENE,8.1,-,N/A,,Mostly Cloudy,70,2012-10-27 13:56:00
10:56 AM,64.0,51.1,63,30.02,10.0,East,11.5,-,N/A,,Mostly Cloudy,90,2012-10-27 14:56:00
11:56 AM,64.9,51.1,61,30.00,10.0,East,10.4,-,N/A,,Mostly Cloudy,100,2012-10-27 15:56:00
1:56 PM,64.9,52.0,63,29.96,10.0,Variable,4.6,-,N/A,,Mostly Cloudy,0,2012-10-27 17:56:00
2:56 PM,63.0,52.0,67,29.96,10.0,ESE,9.2,-,N/A,,Mostly Cloudy,120,2012-10-27 18:56:00
3:56 PM,64.0,51.1,63,29.95,10.0,ESE,9.2,-,N/A,,Overcast,110,2012-10-27 19:56:00
4:56 PM,63.0,51.1,65,29.95,10.0,East,5.8,-,N/A,,Overcast,100,2012-10-27 20:56:00
5:56 PM,61.0,51.1,70,29.94,10.0,ENE,8.1,-,N/A,,Overcast,70,2012-10-27 21:56:00
6:56 PM,57.9,50.0,75,29.95,10.0,ENE,4.6,-,N/A,,Overcast,70,2012-10-27 22:56:00
7:56 PM,57.9,46.9,67,29.93,10.0,ENE,6.9,-,N/A,,Overcast,60,2012-10-27 23:56:00
8:56 PM,57.0,46.9,69,29.92,10.0,NE,8.1,-,N/A,,Overcast,40,2012-10-28 00:56:00
9:56 PM,57.9,46.9,67,29.91,10.0,ENE,9.2,-,N/A,,Overcast,60,2012-10-28 01:56:00
10:56 PM,57.9,45.0,62,29.91,10.0,ENE,9.2,-,N/A,,Overcast,60,2012-10-28 02:56:00
11:56 PM,57.9,42.1,56,29.90,10.0,ENE,11.5,-,N/A,,Overcast,60,2012-10-28 03:56:00